Weather in Prikubanskiy

Russia / Republic of Adygea     44°57′12″N   39°01′33″E
temp.,
°C
wind,
m/s
gust,
m/s
humid.,
%
clouds,
%
prec.,
mm/h
press.,
hPa
HPBL,
m
19 april, mon
mon1900:00+11wsw2398100 0.3 101648
03:00+11wnw3698100 1.3 1015186
06:00+12wsw2399100 0.6 101594
09:00+13sse0199100 4.4 101426
12:00+14wsw3596100 4.1 1014289
15:00+14sw2394100 4.4 101381
18:00+14nnw1396100 0.4 1013163
21:00+12e3499100 0.9 1013127
20 april, tue
tue2000:00+13e2599100 3.4 1009165
03:00+13ne4999100 12.1 1007261
06:00+12se1499100 0.2 1005166
09:00+16sw258547 0.3 1005428
12:00+18wsw61068100 0.1 10061156
15:00+19sw714525 0.1 10081624
18:00+14sw6126527 0.0 10091085
21:00+11sw61074100 0.0 1013937
21 april, wed
wed2100:00+11sw5107886 0.0 1014552
03:00+9ssw358898 0.0 1015174
06:00+9sw2387100 0.0 1016125
09:00+12ssw2474100 0.0 1018707
12:00+14wsw246399 0.1 10181140
15:00+16w465253 0.2 10181661
18:00+15w45625 0.0 1019844
21:00+11sw25786 0.0 1021142
22 april, thu
thu2200:00+9wsw228453 0.0 102136
03:00+8ssw118761 0.0 102213
06:00+8sse1186100 0.0 102225
09:00+12se116998 0.0 1023421
12:00+17sw12510 0.0 10231207
15:00+18w234816 0.2 10221619
18:00+16wnw23623 0.7 1022353
21:00+12nw24811 1.0 102492
23 april, fri
fri2300:00+10wnw23841 0.0 102379
03:00+9wnw11860 0.0 102325
06:00+8sse11870 0.0 102414
09:00+13ese117148 0.0 1023396
12:00+18se225774 0.0 10221214
15:00+19n124787 0.0 10211615
18:00+18ne115691 0.0 1020558
21:00+14se226997 0.0 102040